Year,Month,Day,Hour,Minute,Value (Times are PST for temperature in C)
2009,09,23,00,00,13.70
2009,09,23,00,01,13.70
2009,09,23,00,02,13.70
2009,09,23,00,03,13.70
2009,09,23,00,04,13.60
2009,09,23,00,05,13.60
2009,09,23,00,06,13.60
2009,09,23,00,07,13.60
2009,09,23,00,08,13.60
2009,09,23,00,09,13.60
2009,09,23,00,10,13.70
2009,09,23,00,11,13.70
2009,09,23,00,12,13.60
2009,09,23,00,13,13.60
2009,09,23,00,14,13.60
2009,09,23,00,15,13.50
2009,09,23,00,16,13.50
2009,09,23,00,17,13.40
2009,09,23,00,18,13.40
2009,09,23,00,19,13.40
2009,09,23,00,20,13.40
2009,09,23,00,21,13.40
2009,09,23,00,22,13.50
2009,09,23,00,23,13.50
2009,09,23,00,24,13.50
2009,09,23,00,25,13.50
2009,09,23,00,26,13.50
2009,09,23,00,27,13.40
2009,09,23,00,28,13.40
2009,09,23,00,29,13.30
2009,09,23,00,30,13.30
2009,09,23,00,31,13.30
2009,09,23,00,32,13.30
2009,09,23,00,33,13.40
2009,09,23,00,34,13.40
2009,09,23,00,35,13.40
2009,09,23,00,36,13.40
2009,09,23,00,37,13.40
2009,09,23,00,38,13.30
2009,09,23,00,39,13.40
2009,09,23,00,40,13.40
2009,09,23,00,41,13.40
2009,09,23,00,42,13.50
2009,09,23,00,43,13.50
2009,09,23,00,44,13.50
2009,09,23,00,45,13.50
2009,09,23,00,46,13.50
2009,09,23,00,47,13.50
2009,09,23,00,48,13.60
2009,09,23,00,49,13.60
2009,09,23,00,50,13.70
2009,09,23,00,51,13.70
2009,09,23,00,52,13.70
2009,09,23,00,53,13.60
2009,09,23,00,54,13.60
2009,09,23,00,55,13.60
2009,09,23,00,56,13.70
2009,09,23,00,57,13.60
2009,09,23,00,58,13.60
2009,09,23,00,59,13.60
2009,09,23,01,00,13.60
2009,09,23,01,01,13.50
2009,09,23,01,02,13.50
2009,09,23,01,03,13.40
2009,09,23,01,04,13.40
2009,09,23,01,05,13.40
2009,09,23,01,06,13.40
2009,09,23,01,07,13.40
2009,09,23,01,08,13.30
2009,09,23,01,09,13.30
2009,09,23,01,10,13.30
2009,09,23,01,11,13.30
2009,09,23,01,12,13.30
2009,09,23,01,13,13.40
2009,09,23,01,14,13.50
2009,09,23,01,15,13.50
2009,09,23,01,16,13.50
2009,09,23,01,17,13.40
2009,09,23,01,18,13.40
2009,09,23,01,19,13.30
2009,09,23,01,20,13.30
2009,09,23,01,21,13.30
2009,09,23,01,22,13.30
2009,09,23,01,23,13.30
2009,09,23,01,24,13.30
2009,09,23,01,25,13.30
2009,09,23,01,26,13.30
2009,09,23,01,27,13.30
2009,09,23,01,28,13.30
2009,09,23,01,29,13.30
2009,09,23,01,30,13.20
2009,09,23,01,31,13.20
2009,09,23,01,32,13.30
2009,09,23,01,33,13.30
2009,09,23,01,34,13.30
2009,09,23,01,35,13.30
2009,09,23,01,36,13.30
2009,09,23,01,37,13.30
2009,09,23,01,38,13.30
2009,09,23,01,39,13.30
2009,09,23,01,40,13.30
2009,09,23,01,41,13.20
2009,09,23,01,42,13.20
2009,09,23,01,43,13.20
2009,09,23,01,44,13.20
2009,09,23,01,45,13.20
2009,09,23,01,46,13.20
2009,09,23,01,47,13.20
2009,09,23,01,48,13.10
2009,09,23,01,49,13.10
2009,09,23,01,50,13.10
2009,09,23,01,51,13.10
2009,09,23,01,52,13.10
2009,09,23,01,53,13.10
2009,09,23,01,54,13.10
2009,09,23,01,55,13.10
2009,09,23,01,56,13.10
2009,09,23,01,57,13.10
2009,09,23,01,58,13.10
2009,09,23,01,59,13.00
2009,09,23,02,00,13.00
2009,09,23,02,01,12.90
2009,09,23,02,02,12.90
2009,09,23,02,03,12.90
2009,09,23,02,04,12.90
2009,09,23,02,05,12.90
2009,09,23,02,06,12.90
2009,09,23,02,07,12.90
2009,09,23,02,08,12.90
2009,09,23,02,09,12.90
2009,09,23,02,10,12.90
2009,09,23,02,11,12.80
2009,09,23,02,12,12.80
2009,09,23,02,13,12.80
2009,09,23,02,14,12.80
2009,09,23,02,15,12.80
2009,09,23,02,16,12.70
2009,09,23,02,17,12.70
2009,09,23,02,18,12.70
2009,09,23,02,19,12.70
2009,09,23,02,20,12.70
2009,09,23,02,21,12.70
2009,09,23,02,22,12.70
2009,09,23,02,23,12.70
2009,09,23,02,24,12.70
2009,09,23,02,25,12.70
2009,09,23,02,26,12.70
2009,09,23,02,27,12.70
2009,09,23,02,28,12.60
2009,09,23,02,29,12.60
2009,09,23,02,30,12.60
2009,09,23,02,31,12.60
2009,09,23,02,32,12.60
2009,09,23,02,33,12.60
2009,09,23,02,34,12.60
2009,09,23,02,35,12.60
2009,09,23,02,36,12.60
2009,09,23,02,37,12.60
2009,09,23,02,38,12.60
2009,09,23,02,39,12.60
2009,09,23,02,40,12.50
2009,09,23,02,41,12.50
2009,09,23,02,42,12.50
2009,09,23,02,43,12.50
2009,09,23,02,44,12.50
2009,09,23,02,45,12.50
2009,09,23,02,46,12.60
2009,09,23,02,47,12.60
2009,09,23,02,48,12.60
2009,09,23,02,49,12.60
2009,09,23,02,50,12.60
2009,09,23,02,51,12.60
2009,09,23,02,52,12.60
2009,09,23,02,53,12.60
2009,09,23,02,54,12.60
2009,09,23,02,55,12.60
2009,09,23,02,56,12.60
2009,09,23,02,57,12.60
2009,09,23,02,58,12.60
2009,09,23,02,59,12.50
2009,09,23,03,00,12.50
2009,09,23,03,01,12.50
2009,09,23,03,02,12.40
2009,09,23,03,03,12.30
2009,09,23,03,04,12.30
2009,09,23,03,05,12.30
2009,09,23,03,06,12.30
2009,09,23,03,07,12.30
2009,09,23,03,08,12.30
2009,09,23,03,09,12.40
2009,09,23,03,10,12.40
2009,09,23,03,11,12.40
2009,09,23,03,12,12.40
2009,09,23,03,13,12.50
2009,09,23,03,14,12.40
2009,09,23,03,15,12.40
2009,09,23,03,16,12.30
2009,09,23,03,17,12.30
2009,09,23,03,18,12.30
2009,09,23,03,19,12.20
2009,09,23,03,20,12.30
2009,09,23,03,21,12.30
2009,09,23,03,22,12.20
2009,09,23,03,23,12.20
2009,09,23,03,24,12.30
2009,09,23,03,25,12.40
2009,09,23,03,26,12.40
2009,09,23,03,27,12.40
2009,09,23,03,28,12.30
2009,09,23,03,29,12.30
2009,09,23,03,30,12.20
2009,09,23,03,31,12.20
2009,09,23,03,32,12.20
2009,09,23,03,33,12.20
2009,09,23,03,34,12.20
2009,09,23,03,35,12.20
2009,09,23,03,36,12.20
2009,09,23,03,37,12.30
2009,09,23,03,38,12.30
2009,09,23,03,39,12.30
2009,09,23,03,40,12.30
2009,09,23,03,41,12.30
2009,09,23,03,42,12.30
2009,09,23,03,43,12.30
2009,09,23,03,44,12.30
2009,09,23,03,45,12.40
2009,09,23,03,46,12.40
2009,09,23,03,47,12.40
2009,09,23,03,48,12.50
2009,09,23,03,49,12.50
2009,09,23,03,50,12.50
2009,09,23,03,51,12.50
2009,09,23,03,52,12.50
2009,09,23,03,53,12.50
2009,09,23,03,54,12.50
2009,09,23,03,55,12.50
2009,09,23,03,56,12.50
2009,09,23,03,57,12.40
2009,09,23,03,58,12.30
2009,09,23,03,59,12.30
2009,09,23,04,00,12.20
2009,09,23,04,01,12.20
2009,09,23,04,02,12.10
2009,09,23,04,03,12.20
2009,09,23,04,04,12.20
2009,09,23,04,05,12.20
2009,09,23,04,06,12.20
2009,09,23,04,07,12.20
2009,09,23,04,08,12.30
2009,09,23,04,09,12.30
2009,09,23,04,10,12.30
2009,09,23,04,11,12.20
2009,09,23,04,12,12.20
2009,09,23,04,13,12.20
2009,09,23,04,14,12.10
2009,09,23,04,15,12.10
2009,09,23,04,16,12.10
2009,09,23,04,17,12.10
2009,09,23,04,18,12.10
2009,09,23,04,19,12.10
2009,09,23,04,20,12.10
2009,09,23,04,21,12.20
2009,09,23,04,22,12.20
2009,09,23,04,23,12.20
2009,09,23,04,24,12.20
2009,09,23,04,25,12.10
2009,09,23,04,26,12.20
2009,09,23,04,27,12.20
2009,09,23,04,28,12.30
2009,09,23,04,29,12.30
2009,09,23,04,30,12.30
2009,09,23,04,31,12.30
2009,09,23,04,32,12.30
2009,09,23,04,33,12.30
2009,09,23,04,34,12.30
2009,09,23,04,35,12.20
2009,09,23,04,36,12.20
2009,09,23,04,37,12.20
2009,09,23,04,38,12.30
2009,09,23,04,39,12.30
2009,09,23,04,40,12.30
2009,09,23,04,41,12.30
2009,09,23,04,42,12.40
2009,09,23,04,43,12.40
2009,09,23,04,44,12.40
2009,09,23,04,45,12.40
2009,09,23,04,46,12.40
2009,09,23,04,47,12.30
2009,09,23,04,48,12.30
2009,09,23,04,49,12.30
2009,09,23,04,50,12.30
2009,09,23,04,51,12.30
2009,09,23,04,52,12.30
2009,09,23,04,53,12.30
2009,09,23,04,54,12.20
2009,09,23,04,55,12.20
2009,09,23,04,56,12.20
2009,09,23,04,57,12.20
2009,09,23,04,58,12.20
2009,09,23,04,59,12.10
2009,09,23,05,00,12.10
2009,09,23,05,01,12.10
2009,09,23,05,02,12.10
2009,09,23,05,03,12.00
2009,09,23,05,04,12.00
2009,09,23,05,05,12.00
2009,09,23,05,06,11.90
2009,09,23,05,07,11.90
2009,09,23,05,08,11.90
2009,09,23,05,09,11.90
2009,09,23,05,10,11.80
2009,09,23,05,11,11.80
2009,09,23,05,12,11.70
2009,09,23,05,13,11.70
2009,09,23,05,14,11.70
2009,09,23,05,15,11.80
2009,09,23,05,16,11.80
2009,09,23,05,17,11.90
2009,09,23,05,18,11.90
2009,09,23,05,19,11.90
2009,09,23,05,20,12.00
2009,09,23,05,21,12.00
2009,09,23,05,22,11.90
2009,09,23,05,23,11.90
2009,09,23,05,24,11.80
2009,09,23,05,25,11.80
2009,09,23,05,26,11.80
2009,09,23,05,27,11.80
2009,09,23,05,28,11.80
2009,09,23,05,29,11.80
2009,09,23,05,30,11.80
2009,09,23,05,31,11.80
2009,09,23,05,32,11.80
2009,09,23,05,33,11.80
2009,09,23,05,34,11.80
2009,09,23,05,35,11.80
2009,09,23,05,36,11.70
2009,09,23,05,37,11.70
2009,09,23,05,38,11.70
2009,09,23,05,39,11.70
2009,09,23,05,40,11.70
2009,09,23,05,41,11.70
2009,09,23,05,42,11.60
2009,09,23,05,43,11.60
2009,09,23,05,44,11.60
2009,09,23,05,45,11.50
2009,09,23,05,46,11.50
2009,09,23,05,47,11.50
2009,09,23,05,48,11.60
2009,09,23,05,49,11.60
2009,09,23,05,50,11.60
2009,09,23,05,51,11.50
2009,09,23,05,52,11.50
2009,09,23,05,53,11.50
2009,09,23,05,54,11.50
2009,09,23,05,55,11.50
2009,09,23,05,56,11.50
2009,09,23,05,57,11.50
2009,09,23,05,58,11.50
2009,09,23,05,59,11.40
2009,09,23,06,00,11.40
2009,09,23,06,01,11.30
2009,09,23,06,02,11.30
2009,09,23,06,03,11.30
2009,09,23,06,04,11.30
2009,09,23,06,05,11.30
2009,09,23,06,06,11.30
2009,09,23,06,07,11.30
2009,09,23,06,08,11.40
2009,09,23,06,09,11.40
2009,09,23,06,10,11.40
2009,09,23,06,11,11.40
2009,09,23,06,12,11.30
2009,09,23,06,13,11.30
2009,09,23,06,14,11.30
2009,09,23,06,15,11.40
2009,09,23,06,16,11.40
2009,09,23,06,17,11.40
2009,09,23,06,18,11.40
2009,09,23,06,19,11.40
2009,09,23,06,20,11.40
2009,09,23,06,21,11.40
2009,09,23,06,22,11.40
2009,09,23,06,23,11.40
2009,09,23,06,24,11.40
2009,09,23,06,25,11.40
2009,09,23,06,26,11.40
2009,09,23,06,27,11.40
2009,09,23,06,28,11.40
2009,09,23,06,29,11.40
2009,09,23,06,30,11.30
2009,09,23,06,31,11.30
2009,09,23,06,32,11.30
2009,09,23,06,33,11.30
2009,09,23,06,34,11.30
2009,09,23,06,35,11.20
2009,09,23,06,36,11.10
2009,09,23,06,37,11.10
2009,09,23,06,38,11.00
2009,09,23,06,39,11.00
2009,09,23,06,40,10.90
2009,09,23,06,41,10.90
2009,09,23,06,42,11.00
2009,09,23,06,43,11.10
2009,09,23,06,44,11.10
2009,09,23,06,45,11.10
2009,09,23,06,46,11.10
2009,09,23,06,47,11.10
2009,09,23,06,48,11.10
2009,09,23,06,49,11.00
2009,09,23,06,50,11.00
2009,09,23,06,51,10.90
2009,09,23,06,52,10.90
2009,09,23,06,53,10.90
2009,09,23,06,54,10.90
2009,09,23,06,55,11.00
2009,09,23,06,56,11.00
2009,09,23,06,57,11.10
2009,09,23,06,58,11.10
2009,09,23,06,59,11.20
2009,09,23,07,00,11.20
2009,09,23,07,01,11.30
2009,09,23,07,02,11.40
2009,09,23,07,03,11.40
2009,09,23,07,04,11.50
2009,09,23,07,05,11.60
2009,09,23,07,06,11.60
2009,09,23,07,07,11.60
2009,09,23,07,08,11.60
2009,09,23,07,09,11.60
2009,09,23,07,10,11.60
2009,09,23,07,11,11.60
2009,09,23,07,12,11.60
2009,09,23,07,13,11.60
2009,09,23,07,14,11.50
2009,09,23,07,15,11.50
2009,09,23,07,16,11.50
2009,09,23,07,17,11.40
2009,09,23,07,18,11.50
2009,09,23,07,19,11.50
2009,09,23,07,20,11.50
2009,09,23,07,21,11.40
2009,09,23,07,22,11.50
2009,09,23,07,23,11.50
2009,09,23,07,24,11.50
2009,09,23,07,25,11.50
2009,09,23,07,26,11.40
2009,09,23,07,27,11.40
2009,09,23,07,28,11.40
2009,09,23,07,29,11.30
2009,09,23,07,30,11.30
2009,09,23,07,31,11.30
2009,09,23,07,32,11.30
2009,09,23,07,33,11.30
2009,09,23,07,34,11.30
2009,09,23,07,35,11.30
2009,09,23,07,36,11.30
2009,09,23,07,37,11.30
2009,09,23,07,38,11.30
2009,09,23,07,39,11.40
2009,09,23,07,40,11.40
2009,09,23,07,41,11.40
2009,09,23,07,42,11.40
2009,09,23,07,43,11.40
2009,09,23,07,44,11.30
2009,09,23,07,45,11.30
2009,09,23,07,46,11.30
2009,09,23,07,47,11.30
2009,09,23,07,48,11.30
2009,09,23,07,49,11.30
2009,09,23,07,50,11.30
2009,09,23,07,51,11.30
2009,09,23,07,52,11.30
2009,09,23,07,53,11.20
2009,09,23,07,54,11.20
2009,09,23,07,55,11.20
2009,09,23,07,56,11.20
2009,09,23,07,57,11.20
2009,09,23,07,58,11.20
2009,09,23,07,59,11.20
2009,09,23,08,00,11.20
2009,09,23,08,01,11.20
2009,09,23,08,02,11.20
2009,09,23,08,03,11.30
2009,09,23,08,04,11.30
2009,09,23,08,05,11.30
2009,09,23,08,06,11.40
2009,09,23,08,07,11.40
2009,09,23,08,08,11.40
2009,09,23,08,09,11.40
2009,09,23,08,10,11.50
2009,09,23,08,11,11.50
2009,09,23,08,12,11.60
2009,09,23,08,13,11.60
2009,09,23,08,14,11.60
2009,09,23,08,15,11.60
2009,09,23,08,16,11.60
2009,09,23,08,17,11.70
2009,09,23,08,18,11.70
2009,09,23,08,19,11.80
2009,09,23,08,20,11.90
2009,09,23,08,21,11.90
2009,09,23,08,22,12.00
2009,09,23,08,23,12.00
2009,09,23,08,24,12.10
2009,09,23,08,25,12.10
2009,09,23,08,26,12.10
2009,09,23,08,27,12.20
2009,09,23,08,28,12.20
2009,09,23,08,29,12.20
2009,09,23,08,30,12.20
2009,09,23,08,31,12.30
2009,09,23,08,32,12.30
2009,09,23,08,33,12.30
2009,09,23,08,34,12.30
2009,09,23,08,35,12.40
2009,09,23,08,36,12.40
2009,09,23,08,37,12.50
2009,09,23,08,38,12.50
2009,09,23,08,39,12.60
2009,09,23,08,40,12.60
2009,09,23,08,41,12.70
2009,09,23,08,42,12.80
2009,09,23,08,43,12.80
2009,09,23,08,44,12.90
2009,09,23,08,45,12.90
2009,09,23,08,46,13.00
2009,09,23,08,47,13.00
2009,09,23,08,48,13.10
2009,09,23,08,49,13.10
2009,09,23,08,50,13.20
2009,09,23,08,51,13.20
2009,09,23,08,52,13.20
2009,09,23,08,53,13.30
2009,09,23,08,54,13.30
2009,09,23,08,55,13.30
2009,09,23,08,56,13.30
2009,09,23,08,57,13.30
2009,09,23,08,58,13.40
2009,09,23,08,59,13.40
2009,09,23,09,00,13.40
2009,09,23,09,01,13.50
2009,09,23,09,02,13.50
2009,09,23,09,03,13.50
2009,09,23,09,04,13.60
2009,09,23,09,05,13.60
2009,09,23,09,06,13.60
2009,09,23,09,07,13.60
2009,09,23,09,08,13.50
2009,09,23,09,09,13.50
2009,09,23,09,10,13.50
2009,09,23,09,11,13.50
2009,09,23,09,12,13.50
2009,09,23,09,13,13.40
2009,09,23,09,14,13.40
2009,09,23,09,15,13.40
2009,09,23,09,16,13.40
2009,09,23,09,17,13.40
2009,09,23,09,18,13.40
2009,09,23,09,19,13.40
2009,09,23,09,20,13.40
2009,09,23,09,21,13.40
2009,09,23,09,22,13.50
2009,09,23,09,23,13.50
2009,09,23,09,24,13.50
2009,09,23,09,25,13.60
2009,09,23,09,26,13.60
2009,09,23,09,27,13.60
2009,09,23,09,28,13.60
2009,09,23,09,29,13.60
2009,09,23,09,30,13.70
2009,09,23,09,31,13.70
2009,09,23,09,32,13.70
2009,09,23,09,33,13.70
2009,09,23,09,34,13.70
2009,09,23,09,35,13.80
2009,09,23,09,36,13.80
2009,09,23,09,37,13.80
2009,09,23,09,38,13.90
2009,09,23,09,39,13.90
2009,09,23,09,40,14.00
2009,09,23,09,41,14.00
2009,09,23,09,42,14.10
2009,09,23,09,43,14.10
2009,09,23,09,44,14.20
2009,09,23,09,45,14.20
2009,09,23,09,46,14.20
2009,09,23,09,47,14.30
2009,09,23,09,48,14.40
2009,09,23,09,49,14.50
2009,09,23,09,50,14.60
2009,09,23,09,51,14.80
2009,09,23,09,52,15.00
2009,09,23,09,53,15.00
2009,09,23,09,54,15.00
2009,09,23,09,55,15.10
2009,09,23,09,56,15.20
2009,09,23,09,57,15.30
2009,09,23,09,58,15.50
2009,09,23,09,59,15.60
2009,09,23,10,00,15.80
2009,09,23,10,01,15.90
2009,09,23,10,02,16.00
2009,09,23,10,03,16.10
2009,09,23,10,04,16.20
2009,09,23,10,05,16.20
2009,09,23,10,06,16.30
2009,09,23,10,07,16.40
2009,09,23,10,08,16.50
2009,09,23,10,09,16.70
2009,09,23,10,10,16.80
2009,09,23,10,11,16.90
2009,09,23,10,12,17.00
2009,09,23,10,13,17.20
2009,09,23,10,14,17.30
2009,09,23,10,15,17.40
2009,09,23,10,16,17.50
2009,09,23,10,17,17.60
2009,09,23,10,18,17.70
2009,09,23,10,19,17.80
2009,09,23,10,20,17.90
2009,09,23,10,21,18.10
2009,09,23,10,22,18.20
2009,09,23,10,23,18.30
2009,09,23,10,24,18.40
2009,09,23,10,25,18.50
2009,09,23,10,26,18.60
2009,09,23,10,27,18.70
2009,09,23,10,28,18.80
2009,09,23,10,29,18.80
2009,09,23,10,30,18.70
2009,09,23,10,31,18.50
2009,09,23,10,32,18.30
2009,09,23,10,33,18.10
2009,09,23,10,34,17.80
2009,09,23,10,35,17.60
2009,09,23,10,36,17.50
2009,09,23,10,37,17.30
2009,09,23,10,38,17.30
2009,09,23,10,39,17.20
2009,09,23,10,40,17.10
2009,09,23,10,41,17.10
2009,09,23,10,42,17.10
2009,09,23,10,43,17.20
2009,09,23,10,44,17.20
2009,09,23,10,45,17.30
2009,09,23,10,46,17.40
2009,09,23,10,47,17.50
2009,09,23,10,48,17.50
2009,09,23,10,49,17.60
2009,09,23,10,50,17.70
2009,09,23,10,51,17.80
2009,09,23,10,52,17.80
2009,09,23,10,53,17.90
2009,09,23,10,54,18.00
2009,09,23,10,55,18.10
2009,09,23,10,56,18.20
2009,09,23,10,57,18.30
2009,09,23,10,58,18.30
2009,09,23,10,59,18.40
2009,09,23,11,00,18.50
2009,09,23,11,01,18.60
2009,09,23,11,02,18.70
2009,09,23,11,03,18.70
2009,09,23,11,04,18.80
2009,09,23,11,05,18.90
2009,09,23,11,06,19.00
2009,09,23,11,07,19.20
2009,09,23,11,08,19.30
2009,09,23,11,09,19.40
2009,09,23,11,10,19.50
2009,09,23,11,11,19.60
2009,09,23,11,12,19.60
2009,09,23,11,13,19.70
2009,09,23,11,14,19.70
2009,09,23,11,15,19.70
2009,09,23,11,16,19.70
2009,09,23,11,17,19.60
2009,09,23,11,18,19.60
2009,09,23,11,19,19.60
2009,09,23,11,20,19.60
2009,09,23,11,21,19.60
2009,09,23,11,22,19.60
2009,09,23,11,23,19.60
2009,09,23,11,24,19.70
2009,09,23,11,25,19.70
2009,09,23,11,26,19.70
2009,09,23,11,27,19.80
2009,09,23,11,28,19.80
2009,09,23,11,29,19.90
2009,09,23,11,30,19.90
2009,09,23,11,31,20.00
2009,09,23,11,32,20.10
2009,09,23,11,33,20.20
2009,09,23,11,34,20.20
2009,09,23,11,35,20.30
2009,09,23,11,36,20.30
2009,09,23,11,37,20.30
2009,09,23,11,38,20.40
2009,09,23,11,39,20.40
2009,09,23,11,40,20.40
2009,09,23,11,41,20.40
2009,09,23,11,42,20.40
2009,09,23,11,43,20.40
2009,09,23,11,44,20.40
2009,09,23,11,45,20.40
2009,09,23,11,46,20.30
2009,09,23,11,47,20.30
2009,09,23,11,48,20.30
2009,09,23,11,49,20.30
2009,09,23,11,50,20.30
2009,09,23,11,51,20.20
2009,09,23,11,52,20.20
2009,09,23,11,53,20.20
2009,09,23,11,54,20.20
2009,09,23,11,55,20.10
2009,09,23,11,56,20.10
2009,09,23,11,57,20.10
2009,09,23,11,58,20.10
2009,09,23,11,59,20.20
2009,09,23,12,00,20.20
2009,09,23,12,01,20.30
2009,09,23,12,02,20.30
2009,09,23,12,03,20.30
2009,09,23,12,04,20.30
2009,09,23,12,05,20.30
2009,09,23,12,06,20.30
2009,09,23,12,07,20.30
2009,09,23,12,08,20.30
2009,09,23,12,09,20.30
2009,09,23,12,10,20.20
2009,09,23,12,11,20.20
2009,09,23,12,12,20.20
2009,09,23,12,13,20.20
2009,09,23,12,14,20.30
2009,09,23,12,15,20.30
2009,09,23,12,16,20.30
2009,09,23,12,17,20.30
2009,09,23,12,18,20.40
2009,09,23,12,19,20.40
2009,09,23,12,20,20.40
2009,09,23,12,21,20.40
2009,09,23,12,22,20.40
2009,09,23,12,23,20.30
2009,09,23,12,24,20.30
2009,09,23,12,25,20.30
2009,09,23,12,26,20.30
2009,09,23,12,27,20.20
2009,09,23,12,28,20.20
2009,09,23,12,29,20.10
2009,09,23,12,30,20.10
2009,09,23,12,31,20.10
2009,09,23,12,32,20.10
2009,09,23,12,33,20.10
2009,09,23,12,34,20.10
2009,09,23,12,35,20.20
2009,09,23,12,36,20.20
2009,09,23,12,37,20.20
2009,09,23,12,38,20.30
2009,09,23,12,39,20.30
2009,09,23,12,40,20.30
2009,09,23,12,41,20.40
2009,09,23,12,42,20.40
2009,09,23,12,43,20.40
2009,09,23,12,44,20.60
2009,09,23,12,45,20.70
2009,09,23,12,46,20.80
2009,09,23,12,47,20.80
2009,09,23,12,48,20.80
2009,09,23,12,49,20.80
2009,09,23,12,50,20.80
2009,09,23,12,51,20.80
2009,09,23,12,52,20.80
2009,09,23,12,53,20.90
2009,09,23,12,54,20.90
2009,09,23,12,55,21.00
2009,09,23,12,56,21.10
2009,09,23,12,57,21.10
2009,09,23,12,58,21.20
2009,09,23,12,59,21.20
2009,09,23,13,00,21.20
2009,09,23,13,01,21.20
2009,09,23,13,02,21.20
2009,09,23,13,03,21.20
2009,09,23,13,04,21.20
2009,09,23,13,05,21.20
2009,09,23,13,06,21.20
2009,09,23,13,07,21.20
2009,09,23,13,08,21.10
2009,09,23,13,09,21.00
2009,09,23,13,10,20.90
2009,09,23,13,11,20.80
2009,09,23,13,12,20.70
2009,09,23,13,13,20.60
2009,09,23,13,14,20.60
2009,09,23,13,15,20.60
2009,09,23,13,16,20.60
2009,09,23,13,17,20.60
2009,09,23,13,18,20.70
2009,09,23,13,19,20.80
2009,09,23,13,20,20.90
2009,09,23,13,21,21.10
2009,09,23,13,22,21.30
2009,09,23,13,23,21.40
2009,09,23,13,24,21.60
2009,09,23,13,25,21.70
2009,09,23,13,26,21.80
2009,09,23,13,27,21.90
2009,09,23,13,28,21.90
2009,09,23,13,29,22.10
2009,09,23,13,30,22.20
2009,09,23,13,31,22.30
2009,09,23,13,32,22.40
2009,09,23,13,33,22.40
2009,09,23,13,34,22.50
2009,09,23,13,35,22.50
2009,09,23,13,36,22.50
2009,09,23,13,37,22.60
2009,09,23,13,38,22.70
2009,09,23,13,39,22.80
2009,09,23,13,40,22.80
2009,09,23,13,41,22.80
2009,09,23,13,42,22.70
2009,09,23,13,43,22.60
2009,09,23,13,44,22.50
2009,09,23,13,45,22.40
2009,09,23,13,46,22.30
2009,09,23,13,47,22.20
2009,09,23,13,48,22.20
2009,09,23,13,49,22.20
2009,09,23,13,50,22.20
2009,09,23,13,51,22.20
2009,09,23,13,52,22.30
2009,09,23,13,53,22.30
2009,09,23,13,54,22.40
2009,09,23,13,55,22.40
2009,09,23,13,56,22.50
2009,09,23,13,57,22.60
2009,09,23,13,58,22.70
2009,09,23,13,59,22.80
2009,09,23,14,00,22.90
2009,09,23,14,01,23.10
2009,09,23,14,02,23.10
2009,09,23,14,03,23.20
2009,09,23,14,04,23.20
2009,09,23,14,05,23.20
2009,09,23,14,06,23.20
2009,09,23,14,07,23.20
2009,09,23,14,08,23.10
2009,09,23,14,09,23.10
2009,09,23,14,10,23.00
2009,09,23,14,11,23.00
2009,09,23,14,12,22.90
2009,09,23,14,13,22.80
2009,09,23,14,14,22.80
2009,09,23,14,15,22.70
2009,09,23,14,16,22.70
2009,09,23,14,17,22.70
2009,09,23,14,18,22.80
2009,09,23,14,19,22.80
2009,09,23,14,20,22.80
2009,09,23,14,21,22.90
2009,09,23,14,22,22.90
2009,09,23,14,23,22.90
2009,09,23,14,24,22.90
2009,09,23,14,25,23.00
2009,09,23,14,26,23.10
2009,09,23,14,27,23.10
2009,09,23,14,28,23.20
2009,09,23,14,29,23.30
2009,09,23,14,30,23.50
2009,09,23,14,31,23.60
2009,09,23,14,32,23.70
2009,09,23,14,33,23.80
2009,09,23,14,34,23.80
2009,09,23,14,35,23.90
2009,09,23,14,36,23.90
2009,09,23,14,37,23.90
2009,09,23,14,38,23.90
2009,09,23,14,39,23.90
2009,09,23,14,40,23.90
2009,09,23,14,41,23.90
2009,09,23,14,42,23.90
2009,09,23,14,43,24.00
2009,09,23,14,44,24.10
2009,09,23,14,45,24.10
2009,09,23,14,46,24.20
2009,09,23,14,47,24.20
2009,09,23,14,48,24.30
2009,09,23,14,49,24.30
2009,09,23,14,50,24.30
2009,09,23,14,51,24.40
2009,09,23,14,52,24.40
2009,09,23,14,53,24.40
2009,09,23,14,54,24.40
2009,09,23,14,55,24.50
2009,09,23,14,56,24.50
2009,09,23,14,57,24.60
2009,09,23,14,58,24.60
2009,09,23,14,59,24.70
2009,09,23,15,00,24.70
2009,09,23,15,01,24.70
2009,09,23,15,02,24.70
2009,09,23,15,03,24.60
2009,09,23,15,04,24.50
2009,09,23,15,05,24.40
2009,09,23,15,06,24.30
2009,09,23,15,07,24.20
2009,09,23,15,08,24.20
2009,09,23,15,09,24.20
2009,09,23,15,10,24.20
2009,09,23,15,11,24.30
2009,09,23,15,12,24.30
2009,09,23,15,13,24.40
2009,09,23,15,14,24.40
2009,09,23,15,15,24.50
2009,09,23,15,16,24.50
2009,09,23,15,17,24.50
2009,09,23,15,18,24.60
2009,09,23,15,19,24.60
2009,09,23,15,20,24.70
2009,09,23,15,21,24.70
2009,09,23,15,22,24.80
2009,09,23,15,23,24.80
2009,09,23,15,24,24.80
2009,09,23,15,25,24.80
2009,09,23,15,26,24.90
2009,09,23,15,27,24.90
2009,09,23,15,28,24.90
2009,09,23,15,29,24.90
2009,09,23,15,30,24.90
2009,09,23,15,31,24.80
2009,09,23,15,32,24.80
2009,09,23,15,33,24.70
2009,09,23,15,34,24.70
2009,09,23,15,35,24.70
2009,09,23,15,36,24.70
2009,09,23,15,37,24.70
2009,09,23,15,38,24.70
2009,09,23,15,39,24.70
2009,09,23,15,40,24.70
2009,09,23,15,41,24.80
2009,09,23,15,42,24.80
2009,09,23,15,43,24.80
2009,09,23,15,44,24.90
2009,09,23,15,45,24.90
2009,09,23,15,46,25.00
2009,09,23,15,47,25.10
2009,09,23,15,48,25.10
2009,09,23,15,49,25.20
2009,09,23,15,50,25.20
2009,09,23,15,51,25.10
2009,09,23,15,52,24.90
2009,09,23,15,53,24.80
2009,09,23,15,54,24.70
2009,09,23,15,55,24.70
2009,09,23,15,56,24.50
2009,09,23,15,57,24.50
2009,09,23,15,58,24.40
2009,09,23,15,59,24.40
2009,09,23,16,00,24.40
2009,09,23,16,01,24.40
2009,09,23,16,02,24.30
2009,09,23,16,03,24.30
2009,09,23,16,04,24.30
2009,09,23,16,05,24.30
2009,09,23,16,06,24.30
2009,09,23,16,07,24.30
2009,09,23,16,08,24.40
2009,09,23,16,09,24.50
2009,09,23,16,10,24.50
2009,09,23,16,11,24.60
2009,09,23,16,12,24.60
2009,09,23,16,13,24.70
2009,09,23,16,14,24.60
2009,09,23,16,15,24.60
2009,09,23,16,16,24.60
2009,09,23,16,17,24.60
2009,09,23,16,18,24.60
2009,09,23,16,19,24.70
2009,09,23,16,20,24.60
2009,09,23,16,21,24.60
2009,09,23,16,22,24.60
2009,09,23,16,23,24.60
2009,09,23,16,24,24.60
2009,09,23,16,25,24.60
2009,09,23,16,26,24.60
2009,09,23,16,27,24.60
2009,09,23,16,28,24.60
2009,09,23,16,29,24.60
2009,09,23,16,30,24.60
2009,09,23,16,31,24.60
2009,09,23,16,32,24.60
2009,09,23,16,33,24.50
2009,09,23,16,34,24.50
2009,09,23,16,35,24.40
2009,09,23,16,36,24.40
2009,09,23,16,37,24.40
2009,09,23,16,38,24.40
2009,09,23,16,39,24.40
2009,09,23,16,40,24.40
2009,09,23,16,41,24.40
2009,09,23,16,42,24.40
2009,09,23,16,43,24.40
2009,09,23,16,44,24.50
2009,09,23,16,45,24.50
2009,09,23,16,46,24.60
2009,09,23,16,47,24.50
2009,09,23,16,48,24.40
2009,09,23,16,49,24.30
2009,09,23,16,50,24.30
2009,09,23,16,51,24.20
2009,09,23,16,52,24.30
2009,09,23,16,53,24.30
2009,09,23,16,54,24.30
2009,09,23,16,55,24.20
2009,09,23,16,56,24.20
2009,09,23,16,57,24.20
2009,09,23,16,58,24.20
2009,09,23,16,59,24.20
2009,09,23,17,00,24.20
2009,09,23,17,01,24.20
2009,09,23,17,02,24.20
2009,09,23,17,03,24.20
2009,09,23,17,04,24.20
2009,09,23,17,05,24.20
2009,09,23,17,06,24.20
2009,09,23,17,07,24.20
2009,09,23,17,08,24.20
2009,09,23,17,09,24.10
2009,09,23,17,10,24.10
2009,09,23,17,11,24.00
2009,09,23,17,12,23.90
2009,09,23,17,13,23.80
2009,09,23,17,14,23.70
2009,09,23,17,15,23.60
2009,09,23,17,16,23.50
2009,09,23,17,17,23.40
2009,09,23,17,18,23.40
2009,09,23,17,19,23.30